Temp
63 59 57 63 63 60 57 56 56 61 64 59 59 61 65 69 70 66 65 61 58 57 59 60 61 62 63 62 61 60 59 58 61 63 63 65 63 67 68 67 63 63 63 63
57 55 64 61 58 56 56 54 55 61 60 58 60 59 66 62 61 59 61 59 59 58 58 59 60 61 60 59 58 59 58 58 58 61 61 61 62 65 65 64 63 61 60 61
56 60 60 57 56 54 56 53 55 53 59 61 58 57 58 56 57 56 56 58 58 58 58 59 59 57 56 54 54 55 55 56 56 56 60 61 63 63 62 61 61 60 59 59
57 63 56 55 55 57 51 59 55 53 51 49 56 46 56 58 56 55 54 56 56 57 58 59 58 56 55 55 55 56 55 55 55 55 55 53 56 55 57 58 59 59 58 57
54 54 53 52 55 57 52 56 53 53 51 51 52 46 56 58 54 55 55 56 57 58 59 57 56 56 57 56 55 54 55 53 53 53 53 54 52 54 55 56 54 56 56 57
58 60 58 59 58 58 57 54 54 53 51 42 51 49 56 53 57 60 58 57 58 58 58 56 55 56 56 56 54 54 53 53 53 52 51 50 49 49 50 50 50 52 53 55
53 55 60 60 54 57 55 50 42 41 41 41 49 47 53 59 59 59 57 58 58 58 56 54 53 54 53 53 53 53 52 50 51 49 49 49 48 48 47 45 47 46 48 49
48 45 55 59 57 53 53 52 42 32 37 43 48 42 53 59 61 60 60 60 59 57 52 52 52 52 52 51 51 51 50 48 48 47 46 46 45 45 45 44 43 44 43 44
47 46 57 57 58 59 50 45 56 44 47 40 47 54 52 53 53 53 55 56 56 54 49 52 51 51 51 50 48 47 46 47 45 44 44 44 44 43 42 42 43 42 42 43
52 44 57 57 57 57 54 58 43 44 31 32 44 47 47 49 51 51 52 54 56 52 48 49 50 49 50 49 49 47 45 44 44 43 43 43 42 42 42 42 40 40 40 41
54 48 49 52 51 51 50 47 47 47 43 34 35 44 57 55 57 56 57 57 58 54 50 47 49 48 48 48 47 45 43 42 42 43 43 42 41 42 42 40 40 39 40 39
53 48 42 48 57 56 53 50 50 37 37 38 39 42 58 57 59 59 60 57 59 53 49 46 45 47 47 46 46 45 44 41 40 41 42 41 41 40 39 38 39 38 38 39
51 45 38 43 50 52 47 49 48 41 36 35 32 41 57 55 55 57 57 57 55 50 47 44 44 45 45 45 44 45 44 42 42 41 40 40 39 37 36 36 37 37 37 38
49 45 41 37 43 49 42 46 49 43 35 39 41 45 54 54 53 55 55 53 52 48 45 46 46 44 43 43 43 43 42 42 42 41 39 38 37 37 36 36 36 35 36 36
48 39 44 46 48 47 46 45 47 44 45 37 43 44 52 56 57 56 56 52 49 45 44 44 41 42 42 42 42 42 40 40 40 37 35 33 35 36 36 35 35 36 36 35
48 37 42 39 46 46 43 46 47 47 47 47 48 47 58 56 54 51 51 48 45 43 41 38 39 41 39 39 40 38 35 35 36 34 30 30 32 32 31 32 32 34 35 34
44 39 35 30 42 40 34 43 47 49 51 49 39 50 57 51 48 50 48 46 43 39 37 36 37 37 37 36 37 34 33 35 33 31 30 30 30 30 30 31 31 31 31 32
41 39 37 32 37 24 45 51 48 47 50 51 52 53 50 49 46 46 48 45 40 38 36 35 35 35 34 35 35 33 33 31 31 30 29 30 29 29 30 29 30 30 31 30
48 42 33 28 32 39 44 46 38 37 44 51 47 50 44 42 42 35 41 42 37 33 32 32 32 32 32 32 32 31 31 31 30 28 28 29 28 28 29 28 29 30 30 30
47 45 35 33 27 24 39 45 48 46 34 51 48 46 39 40 37 39 37 37 32 31 31 30 31 32 32 32 33 31 29 28 27 28 28 30 30 29 28 29 29 30 30 29
35 32 28 32 29 37 51 45 48 31 37 44 47 45 40 38 39 33 32 31 31 30 30 32 31 31 31 32 33 30 29 27 28 29 29 28 30 30 30 30 30 30 29 29
38 33 32 32 28 27 46 42 37 40 42 44 45 42 41 32 29 29 29 29 29 30 32 34 33 30 30 31 31 30 28 30 31 29 28 28 29 30 30 30 30 30 30 29
32 39 36 38 39 40 45 40 43 44 42 42 43 41 40 30 29 29 29 29 30 31 32 35 34 32 33 35 34 29 30 32 31 31 28 28 29 30 30 30 30 31 30 29
44 47 39 38 41 39 42 41 42 43 43 42 42 40 36 30 30 29 29 30 30 32 32 34 33 32 33 35 35 35 34 33 32 30 30 31 29 29 30 33 32 30 29 28
44 43 41 39 37 33 36 42 42 39 39 36 36 36 33 32 30 30 30 31 32 32 33 34 34 34 34 35 35 36 36 36 33 32 32 32 32 31 29 28 29 29 27 27
43 39 35 37 42 41 44 44 41 36 34 35 33 32 33 34 30 32 30 32 32 32 33 33 34 34 34 34 33 34 36 35 33 31 30 30 31 30 30 30 27 26 25 25
MSLP
1014.35 1013.75 1012.77 1011.84 1012.15 1012.15 1012.48 1012.32 1011.88 1011.83 1012.08 1012.43 1011.69 1011.15 1011.02 1011.28 1011.64 1012.57 1013.53 1014.92 1016.18 1017.13 1017.93 1018.31 1018.50 1018.42 1018.23 1018.34 1018.15 1017.94 1017.70 1017.53 1016.97 1016.39 1015.97 1015.52 1015.52 1015.15 1015.04 1015.43 1015.72 1015.64 1015.31 1014.94
1014.19 1012.98 1012.52 1013.07 1013.25 1013.06 1012.77 1012.46 1012.01 1011.83 1012.47 1012.65 1011.45 1010.89 1010.92 1011.94 1012.59 1013.83 1014.28 1015.19 1016.07 1016.90 1017.55 1018.07 1018.31 1018.60 1018.77 1018.88 1018.84 1018.64 1018.50 1018.33 1018.05 1017.52 1017.23 1016.98 1016.54 1016.01 1016.00 1016.10 1015.99 1016.12 1015.95 1015.50
1012.86 1012.73 1013.19 1013.44 1013.32 1013.08 1012.76 1012.71 1012.24 1012.34 1012.40 1012.31 1011.39 1010.21 1010.63 1012.62 1013.49 1014.47 1015.16 1015.65 1016.23 1016.72 1017.16 1017.70 1018.32 1018.93 1019.45 1019.68 1019.70 1019.63 1019.61 1019.38 1019.17 1018.71 1017.87 1017.36 1016.82 1016.54 1016.31 1016.49 1016.27 1016.43 1016.31 1016.08
1013.03 1013.09 1013.33 1013.18 1013.26 1013.16 1012.75 1012.86 1013.01 1012.90 1012.61 1011.24 1012.01 1009.91 1009.82 1011.43 1012.65 1013.92 1014.91 1015.58 1016.29 1016.93 1017.38 1017.76 1018.35 1019.01 1019.47 1019.87 1020.06 1019.99 1020.00 1019.96 1019.81 1019.56 1018.97 1018.51 1017.83 1017.41 1017.50 1017.22 1016.99 1016.68 1016.50 1016.39
1012.63 1013.16 1013.11 1013.16 1013.10 1013.49 1013.21 1013.60 1013.39 1013.16 1012.55 1011.82 1011.28 1011.13 1008.78 1010.74 1011.68 1012.91 1014.27 1015.22 1016.00 1016.69 1017.18 1017.86 1018.60 1019.15 1019.59 1019.88 1020.06 1020.30 1020.25 1020.35 1020.39 1020.19 1019.97 1019.15 1018.72 1018.55 1018.13 1017.86 1017.61 1017.02 1016.60 1016.34
1012.96 1013.57 1013.32 1012.76 1013.32 1013.65 1013.81 1013.67 1013.15 1012.90 1012.30 1010.91 1009.88 1010.28 1008.17 1009.90 1010.63 1011.62 1013.47 1014.73 1015.59 1016.46 1017.29 1018.10 1018.88 1019.27 1019.67 1020.16 1020.45 1020.52 1020.35 1020.45 1020.54 1020.42 1020.35 1020.06 1019.55 1019.18 1018.56 1018.38 1018.10 1017.66 1017.26 1016.58
1012.81 1012.88 1012.99 1013.20 1013.01 1013.46 1013.70 1013.47 1012.14 1011.32 1010.87 1009.86 1010.51 1010.13 1008.88 1009.61 1010.75 1011.52 1012.87 1014.11 1015.34 1016.37 1017.32 1018.17 1018.81 1019.32 1019.92 1020.35 1020.63 1020.69 1020.69 1020.76 1020.86 1020.91 1020.95 1020.46 1020.28 1019.96 1019.29 1019.27 1018.87 1018.59 1017.83 1017.18
1011.89 1011.93 1012.73 1012.71 1012.36 1012.12 1012.76 1012.92 1012.19 1011.13 1010.19 1009.68 1010.63 1009.22 1008.51 1010.01 1010.72 1011.87 1012.70 1013.81 1015.13 1016.30 1017.75 1018.42 1019.17 1019.74 1020.21 1020.65 1021.00 1021.03 1021.18 1021.23 1021.34 1021.51 1021.53 1021.10 1020.93 1020.71 1020.10 1019.84 1019.64 1019.12 1018.68 1018.04
1012.21 1012.18 1012.60 1012.64 1012.47 1012.38 1012.68 1012.95 1012.51 1012.12 1011.54 1010.83 1009.70 1008.63 1009.57 1010.49 1011.40 1012.27 1012.95 1013.87 1014.88 1016.34 1018.02 1018.61 1019.41 1020.01 1020.46 1020.89 1021.38 1021.69 1021.79 1021.72 1021.94 1022.23 1022.10 1021.58 1021.36 1021.05 1020.63 1020.23 1019.96 1019.53 1019.16 1018.62
1012.96 1012.25 1011.89 1012.04 1012.78 1012.63 1012.60 1012.47 1012.80 1012.76 1011.80 1010.24 1008.71 1008.01 1008.32 1009.76 1010.59 1011.85 1012.62 1013.42 1014.55 1016.32 1018.12 1018.85 1019.47 1020.27 1020.70 1021.17 1021.56 1022.00 1022.24 1022.31 1022.47 1022.42 1022.38 1021.98 1021.70 1021.41 1021.02 1020.56 1020.25 1019.90 1019.43 1018.92
1013.52 1012.99 1012.29 1012.72 1012.23 1011.65 1012.33 1012.61 1012.89 1012.69 1012.38 1011.28 1009.62 1007.69 1008.11 1008.59 1009.35 1010.52 1011.73 1012.79 1013.98 1015.81 1017.83 1018.93 1019.66 1020.57 1021.05 1021.44 1021.97 1022.36 1022.56 1022.68 1022.64 1022.55 1022.38 1022.23 1021.95 1021.76 1021.31 1020.84 1020.50 1020.15 1019.65 1019.13
1014.26 1013.83 1012.63 1011.94 1011.85 1012.39 1012.36 1012.15 1012.35 1012.86 1012.29 1012.33 1010.92 1008.18 1008.45 1008.96 1009.49 1010.05 1010.83 1012.32 1013.67 1015.92 1018.13 1019.17 1019.92 1020.74 1021.26 1021.69 1022.19 1022.26 1022.49 1022.67 1022.92 1022.94 1022.72 1022.60 1022.42 1022.22 1021.84 1021.28 1020.96 1020.62 1020.02 1019.51
1014.67 1014.06 1013.18 1012.05 1011.97 1012.59 1012.30 1012.18 1012.64 1013.50 1013.85 1012.31 1011.22 1008.58 1009.04 1009.70 1009.82 1010.37 1011.19 1012.38 1014.15 1016.42 1018.35 1019.34 1020.15 1020.94 1021.54 1021.90 1022.23 1022.35 1022.61 1022.79 1022.96 1023.14 1023.03 1022.87 1022.87 1022.67 1022.49 1021.97 1021.57 1021.12 1020.51 1020.02
1015.69 1014.72 1013.97 1012.61 1011.53 1011.85 1012.16 1012.16 1012.18 1012.70 1012.42 1011.01 1009.70 1008.60 1008.08 1009.00 1009.82 1010.79 1011.56 1013.07 1014.88 1016.70 1018.44 1019.40 1019.84 1021.04 1021.72 1022.07 1022.44 1022.72 1023.11 1023.14 1023.20 1023.29 1023.42 1023.42 1023.20 1023.12 1022.97 1022.59 1022.18 1021.66 1021.19 1020.76
1015.77 1014.84 1014.37 1013.55 1013.03 1012.79 1012.21 1011.79 1011.58 1011.24 1010.78 1010.65 1008.77 1008.73 1007.71 1008.47 1009.01 1010.34 1012.06 1013.53 1015.26 1017.06 1018.55 1019.60 1020.36 1021.15 1021.84 1022.25 1022.75 1023.13 1023.54 1023.58 1023.75 1023.91 1024.11 1024.13 1023.90 1023.81 1023.40 1022.94 1022.64 1022.23 1021.79 1021.45
1015.77 1015.10 1014.70 1013.61 1013.27 1012.73 1011.82 1011.05 1010.47 1010.26 1009.77 1009.42 1008.70 1007.73 1008.05 1008.93 1010.20 1011.33 1012.73 1014.58 1015.99 1017.58 1019.12 1020.45 1021.01 1021.59 1022.44 1022.88 1023.21 1023.83 1024.18 1024.33 1024.46 1024.58 1024.73 1024.80 1024.51 1024.25 1023.89 1023.56 1023.26 1022.76 1022.32 1021.83
1015.46 1015.50 1015.20 1013.57 1013.37 1012.85 1011.60 1009.32 1009.42 1008.80 1008.55 1008.57 1008.21 1007.56 1008.42 1009.64 1011.10 1012.21 1013.71 1015.22 1016.75 1018.55 1020.07 1020.93 1021.59 1022.41 1023.17 1023.63 1024.02 1024.49 1024.84 1024.96 1025.11 1025.19 1025.20 1025.03 1024.88 1024.60 1024.37 1024.16 1023.80 1023.43 1023.04 1022.61
1015.14 1015.19 1015.38 1014.06 1013.42 1011.77 1009.09 1009.40 1009.55 1008.94 1008.32 1008.19 1008.16 1008.44 1009.87 1011.06 1012.64 1013.84 1014.77 1016.00 1017.82 1019.42 1020.66 1021.59 1022.40 1023.14 1023.86 1024.25 1024.73 1025.07 1025.33 1025.59 1025.60 1025.63 1025.58 1025.45 1025.35 1025.09 1024.87 1024.73 1024.39 1024.00 1023.59 1023.04
1014.07 1014.51 1014.67 1014.10 1012.42 1010.76 1009.19 1009.37 1009.93 1009.67 1008.14 1008.18 1008.85 1009.41 1011.43 1013.10 1014.33 1015.88 1016.70 1017.55 1019.11 1020.58 1021.59 1022.41 1023.16 1023.77 1024.31 1024.71 1025.09 1025.47 1025.66 1025.81 1025.90 1025.96 1026.02 1025.92 1025.85 1025.51 1025.31 1025.12 1024.88 1024.61 1024.11 1023.56
1012.59 1013.44 1014.20 1013.32 1012.16 1010.62 1008.63 1009.63 1010.15 1010.40 1009.06 1008.54 1009.42 1010.50 1012.61 1013.98 1014.61 1015.87 1017.81 1019.06 1020.44 1021.57 1022.32 1022.99 1023.64 1024.12 1024.48 1024.81 1025.18 1025.53 1025.88 1026.14 1026.31 1026.48 1026.47 1026.35 1026.20 1025.99 1025.76 1025.57 1025.39 1025.19 1024.64 1024.38
1012.47 1013.14 1012.83 1012.25 1011.66 1009.71 1008.83 1010.13 1010.78 1010.86 1010.27 1010.15 1010.57 1011.75 1013.31 1014.56 1015.87 1017.21 1018.83 1020.20 1021.20 1021.96 1022.71 1023.37 1023.93 1024.20 1024.62 1024.98 1025.27 1025.69 1026.11 1026.39 1026.74 1026.83 1026.89 1026.80 1026.51 1026.35 1026.17 1025.99 1025.78 1025.48 1025.21 1024.97
1011.04 1011.46 1011.23 1011.30 1010.91 1009.92 1009.99 1011.04 1010.97 1010.78 1011.10 1011.60 1012.02 1013.01 1014.13 1016.05 1017.54 1018.68 1019.82 1020.81 1021.65 1022.24 1022.82 1023.21 1023.68 1024.35 1024.86 1025.19 1025.39 1025.72 1026.17 1026.48 1026.72 1027.03 1027.12 1027.12 1026.86 1026.71 1026.61 1026.30 1025.89 1025.70 1025.55 1025.22
1010.99 1010.29 1010.14 1010.47 1009.49 1010.42 1010.73 1010.99 1011.33 1011.41 1011.82 1012.54 1013.14 1014.07 1015.03 1016.84 1018.19 1019.35 1020.25 1021.17 1021.87 1022.40 1022.74 1023.03 1023.55 1024.24 1024.67 1024.91 1025.37 1025.77 1026.23 1026.42 1026.73 1026.88 1027.17 1027.26 1027.25 1027.07 1027.00 1026.68 1026.25 1025.95 1025.84 1025.64
1009.92 1010.17 1010.16 1010.44 1010.03 1010.92 1011.35 1012.08 1012.46 1012.51 1012.91 1013.61 1014.27 1015.09 1016.20 1017.33 1018.63 1019.61 1020.58 1021.36 1021.99 1022.45 1022.84 1023.23 1023.71 1024.20 1024.54 1024.89 1025.15 1025.57 1026.10 1026.50 1026.72 1026.87 1027.10 1027.18 1027.41 1027.46 1027.27 1026.86 1026.93 1026.89 1026.63 1026.36
1009.94 1010.34 1009.86 1009.98 1011.15 1011.77 1012.24 1012.23 1012.81 1013.51 1014.10 1014.76 1015.47 1016.01 1016.82 1017.73 1018.87 1019.72 1020.60 1021.33 1021.89 1022.37 1022.91 1023.32 1023.65 1024.06 1024.52 1025.00 1025.35 1025.78 1026.05 1026.27 1026.53 1026.89 1027.07 1027.20 1027.44 1027.60 1027.96 1028.20 1028.01 1027.86 1028.12 1027.77
1010.29 1010.05 1010.16 1009.49 1010.32 1010.72 1010.73 1011.72 1013.19 1013.94 1014.59 1015.29 1015.98 1016.69 1017.38 1018.03 1018.98 1019.87 1020.69 1021.36 1021.91 1022.47 1022.95 1023.38 1023.90 1024.39 1024.86 1025.34 1025.78 1026.14 1026.31 1026.53 1026.81 1027.12 1027.42 1027.75 1027.80 1028.07 1028.09 1028.11 1028.71 1029.33 1029.20 1029.10
Wind_Speed
9 9 10 7 8 4 5 9 13 11 8 11 13 13 13 11 11 7 3 4 6 8 9 9 9 10 11 12 13 15 15 16 12 10 9 6 7 6 6 7 10 11 11 10
7 12 9 3 4 7 10 12 14 11 5 8 14 16 17 6 2 2 1 5 7 8 8 8 8 9 11 12 13 14 15 15 13 9 8 7 7 5 5 7 8 10 12 11
14 3 1 8 8 11 12 13 13 11 11 16 14 21 8 5 4 3 3 3 4 4 6 7 8 10 11 13 13 13 13 14 14 14 8 8 5 6 6 8 7 10 11 11
10 11 8 8 12 10 13 6 11 11 9 7 2 8 9 10 7 7 6 6 5 6 4 6 6 8 9 9 8 11 12 13 13 14 10 12 9 9 8 8 8 9 10 11
1 5 8 12 12 4 7 2 5 8 11 13 13 8 4 8 10 10 9 8 8 7 5 5 6 7 9 10 10 9 10 11 12 12 12 9 9 9 8 8 13 11 10 10
9 1 5 6 4 8 1 7 9 9 9 11 12 12 5 9 11 10 10 10 10 8 6 5 5 6 9 10 10 9 11 11 12 11 12 12 12 12 10 11 10 10 10 9
7 14 8 8 9 7 11 7 6 6 8 8 5 8 14 9 6 5 11 12 12 9 6 4 4 7 8 9 10 9 11 12 13 13 13 12 13 13 12 11 10 13 10 10
6 7 11 9 12 4 12 11 6 8 8 9 10 8 1 1 4 6 7 10 12 9 5 4 4 6 8 9 10 11 11 11 13 13 12 12 12 8 9 10 10 9 10 10
4 7 5 7 3 9 8 8 9 15 16 12 13 17 12 8 8 9 11 11 13 10 7 5 4 7 8 8 10 10 11 11 12 12 11 11 11 12 11 12 11 10 11 11
1 10 8 3 5 6 9 3 7 7 9 17 13 13 11 11 12 12 14 15 14 11 9 6 5 6 7 7 8 9 10 11 10 10 10 10 11 11 11 10 12 13 12 13
1 5 5 4 10 16 8 11 9 11 11 13 16 13 8 2 4 13 14 15 14 13 10 7 6 5 6 6 7 7 8 9 10 10 10 11 12 12 11 11 12 12 13 13
4 6 11 14 7 5 9 15 16 12 13 7 13 18 4 3 5 6 8 12 12 13 10 8 6 6 5 6 5 7 7 8 9 9 10 10 11 12 12 12 13 13 13 13
2 7 12 18 13 14 11 13 13 6 3 12 14 15 6 3 4 6 9 12 12 13 11 10 7 6 5 5 6 7 8 8 7 8 9 9 10 11 12 12 13 13 14 14
2 10 13 15 14 13 11 12 14 17 12 17 20 23 18 10 10 8 11 13 13 13 11 9 9 7 6 6 7 7 8 8 8 8 9 10 11 11 10 11 12 12 13 14
6 14 15 18 19 18 20 21 21 23 22 21 24 21 23 17 10 9 11 12 14 12 11 8 8 7 6 6 6 7 7 8 8 9 9 10 10 10 11 12 12 12 12 13
5 11 10 19 16 19 22 24 25 25 26 26 27 29 20 5 1 6 10 12 12 11 10 9 8 8 7 7 7 7 7 7 7 8 8 8 9 10 11 11 11 11 13 13
13 10 9 19 13 10 14 26 26 23 24 22 21 25 15 5 6 8 9 11 11 12 11 10 9 8 7 7 6 7 7 7 8 8 8 9 9 10 11 11 11 11 12 12
19 17 11 16 15 15 15 5 9 13 18 19 23 20 5 3 5 3 5 11 12 12 11 10 9 9 8 7 7 7 7 7 7 8 8 10 10 10 11 11 11 11 11 12
21 18 12 13 16 19 28 10 6 8 20 11 16 8 6 7 9 5 4 8 11 10 8 9 8 9 9 8 7 8 8 8 8 8 8 9 9 10 11 12 12 11 11 12
17 20 15 15 17 20 17 3 5 4 15 9 9 10 11 11 7 5 12 12 13 12 11 11 10 10 9 8 8 8 9 8 9 8 8 8 9 9 11 11 11 10 10 11
6 7 15 16 18 17 10 10 9 9 4 4 6 11 13 8 5 13 12 11 12 12 13 11 9 8 8 8 8 9 9 9 7 7 8 8 8 9 10 10 10 10 10 10
16 10 11 11 13 19 11 10 9 2 4 4 6 9 10 10 11 13 13 13 14 14 13 12 10 9 8 7 8 9 8 7 8 8 9 9 9 8 8 9 9 10 10 10
13 14 10 9 6 3 14 4 2 5 6 6 7 8 11 13 12 14 14 14 13 13 11 10 10 9 7 8 8 8 7 7 7 7 8 8 9 8 8 9 10 8 10 10
10 10 8 5 5 2 7 1 3 2 5 7 5 9 12 13 14 15 14 13 12 11 10 9 10 9 8 8 8 8 8 7 7 7 7 7 8 9 9 7 9 10 10 9
8 5 10 11 4 1 8 13 9 7 7 8 5 7 12 13 14 15 14 14 12 11 10 9 8 8 9 8 8 7 7 6 7 6 6 6 6 6 8 10 10 9 12 13
7 10 8 8 1 8 4 15 12 10 9 9 10 9 10 14 15 15 13 12 11 11 10 9 9 9 9 9 8 7 6 6 6 6 6 6 5 5 5 5 7 15 17 19
Wind_Direction
199 223 231 252 237 307 265 265 276 277 268 292 269 278 281 273 277 283 193 132 111 103 99 85 66 55 53 42 35 31 28 24 20 19 13 4 4 5 2 7 3 357 353 355
198 240 260 287 236 235 246 263 269 279 276 265 281 284 279 316 309 304 153 143 136 130 113 94 80 65 53 45 35 30 27 25 22 15 10 355 339 3 343 356 350 355 347 349
256 18 13 202 218 239 242 267 274 280 297 275 278 270 166 167 167 139 126 114 127 124 118 107 81 59 48 37 30 27 23 18 18 4 7 1 356 342 1 346 344 346 342 341
262 267 229 222 246 255 270 269 264 269 272 276 83 290 201 181 200 202 180 179 161 150 136 101 70 50 37 35 28 23 21 16 14 11 9 5 356 347 347 336 338 327 337 334
137 194 210 230 248 239 280 270 255 269 269 281 261 255 142 183 218 204 197 187 179 168 144 93 61 42 43 32 27 24 18 21 14 4 0 355 356 343 339 336 333 331 331 327
268 322 237 240 222 230 185 232 236 255 262 256 255 219 242 178 221 194 191 194 181 172 152 105 83 55 48 38 29 22 15 22 16 13 6 360 354 342 343 346 334 336 325 328
211 232 218 218 222 199 219 250 267 242 203 257 93 255 254 182 203 216 194 194 184 174 157 120 80 59 45 36 30 24 19 21 15 13 6 1 359 345 343 344 337 331 331 333
257 198 195 172 221 271 211 232 257 265 263 276 167 251 257 353 182 207 199 187 179 174 163 134 85 61 47 38 32 27 22 19 16 12 4 6 358 349 342 347 336 332 332 329
223 224 154 204 189 213 144 222 272 276 271 265 259 258 161 171 192 194 200 193 191 166 180 144 99 60 46 39 38 29 22 26 22 11 4 6 360 358 350 348 346 346 337 330
274 269 254 189 206 207 254 9 235 224 264 256 255 257 264 192 216 208 211 207 198 173 177 150 105 68 53 46 45 37 32 27 21 18 12 9 3 2 353 354 353 347 342 338
308 260 210 205 218 251 194 230 240 278 256 267 274 270 48 310 210 203 212 207 200 173 173 145 115 85 68 59 46 44 38 26 22 17 14 12 11 5 6 5 360 355 349 348
316 288 270 257 273 254 259 268 279 251 251 259 283 274 120 235 247 231 199 191 191 163 164 140 133 115 86 64 47 53 42 35 25 14 12 14 13 7 6 10 6 2 359 356
6 242 272 261 216 226 243 244 242 229 289 259 264 267 128 176 189 184 178 174 158 161 166 146 145 123 97 74 52 40 39 35 29 21 13 15 16 14 5 6 4 4 3 4
250 254 252 269 287 325 269 263 253 239 249 261 256 274 262 216 230 209 183 171 171 172 165 159 141 122 101 75 56 52 43 38 31 31 24 17 16 15 8 7 8 6 10 9
255 265 269 270 272 275 275 276 270 265 253 252 272 270 278 281 286 229 212 175 165 165 165 154 127 122 111 88 73 59 49 44 39 39 33 20 19 16 17 17 14 10 16 15
226 268 278 271 268 265 267 267 262 258 259 264 265 268 276 322 144 178 181 185 180 172 152 143 130 123 106 91 74 68 57 51 51 47 39 26 24 21 22 20 13 14 16 17
268 269 272 272 286 293 270 255 260 261 256 251 255 261 302 241 221 205 190 188 177 162 157 149 135 123 110 91 80 74 70 65 60 52 40 35 30 28 26 21 19 18 17 18
253 251 260 265 271 249 266 314 292 280 266 254 255 270 268 302 95 128 170 170 162 158 153 142 136 129 119 110 93 95 88 76 67 57 46 40 37 33 32 30 26 22 19 21
231 238 244 250 258 268 277 252 204 214 266 252 247 245 158 137 137 132 150 136 150 146 127 136 132 128 130 123 109 100 88 77 72 60 48 42 37 35 34 34 29 23 23 26
231 227 231 239 246 259 272 134 183 188 266 210 220 179 172 166 207 133 160 136 130 134 136 138 136 132 126 120 115 100 89 79 69 60 55 47 48 40 41 36 34 27 27 31
188 205 231 233 242 257 235 151 158 206 311 145 182 167 172 187 32 113 129 132 134 135 137 138 135 123 117 115 113 104 95 82 78 74 67 55 47 52 39 44 38 34 34 31
246 226 226 233 240 246 133 141 221 98 122 169 168 163 169 110 124 133 138 137 139 141 146 145 134 123 114 114 115 109 104 102 95 83 70 65 53 52 44 40 44 42 34 33
241 232 244 226 260 104 186 27 157 129 165 171 173 164 141 139 144 145 144 146 149 149 148 145 132 125 128 124 122 113 105 106 102 87 82 73 61 50 53 45 40 39 42 38
238 235 240 267 207 256 189 246 171 168 162 147 152 160 150 151 154 149 150 149 150 147 145 142 142 140 132 123 116 119 124 121 111 99 88 77 70 61 40 53 53 40 33 37
286 170 242 247 225 73 249 229 189 151 137 129 131 158 161 150 155 154 153 153 152 148 149 155 152 145 134 128 118 115 121 120 108 101 92 82 77 74 81 56 35 56 49 36
198 223 219 257 175 209 261 192 172 160 153 152 143 143 155 154 153 155 151 151 148 149 151 150 146 137 129 122 114 107 109 114 112 104 84 64 71 66 61 83 93 62 54 45